2023/09/25 00:00:00, 1.1,16.5
2023/09/25 00:10:00, 1.0,16.7
2023/09/25 00:20:00, 0.5,16.7
2023/09/25 00:30:00, 0.4,16.9
2023/09/25 00:40:00, 0.4,16.7
2023/09/25 00:50:00, 0.6,16.8
2023/09/25 01:00:00, 1.0,16.7
2023/09/25 01:10:00, 1.0,16.7
2023/09/25 01:20:00, 1.4,16.4
2023/09/25 01:30:00, 1.2,16.3
2023/09/25 01:40:00, 1.0,16.6
2023/09/25 01:50:00, 0.5,16.4
2023/09/25 02:00:00, 0.3,16.3
2023/09/25 02:10:00, 0.4,16.3
2023/09/25 02:20:00, 0.8,16.2
2023/09/25 02:30:00, 0.8,16.3
2023/09/25 02:40:00, 0.5,16.2
2023/09/25 02:50:00, 0.7,15.8
2023/09/25 03:00:00, 1.2,15.9
2023/09/25 03:10:00, 2.3,16.2
2023/09/25 03:20:00, 3.0,16.0
2023/09/25 03:30:00, 8.3,16.0
2023/09/25 03:40:00,15.4,16.2
2023/09/25 03:50:00,14.8,16.3
2023/09/25 04:00:00,15.3,16.2
2023/09/25 04:10:00,15.1,16.1
2023/09/25 04:20:00,15.1,16.3
2023/09/25 04:30:00,15.1,16.3
2023/09/25 04:40:00,14.9,16.3
2023/09/25 04:50:00,14.4,16.3
2023/09/25 05:00:00,13.9,16.7
2023/09/25 05:10:00,13.8,16.5
2023/09/25 05:20:00,13.6,16.2
2023/09/25 05:30:00,13.5,16.1
2023/09/25 05:40:00,13.4,16.3
2023/09/25 05:50:00,13.3,15.9
2023/09/25 06:00:00,13.1,16.3
2023/09/25 06:10:00,13.0,16.3
2023/09/25 06:20:00,13.0,16.5
2023/09/25 06:30:00,13.0,16.7
2023/09/25 06:40:00,13.0,16.8
2023/09/25 06:50:00,12.7,16.9
2023/09/25 07:00:00,12.5,16.9
2023/09/25 07:10:00,12.4,17.2
2023/09/25 07:20:00,12.6,17.7
2023/09/25 07:30:00,12.4,18.9
2023/09/25 07:40:00,12.0,18.6
2023/09/25 07:50:00,12.1,18.6
2023/09/25 08:00:00,12.4,19.1
2023/09/25 08:10:00, 0.0,21.0
2023/09/25 08:20:00,---,20.5
2023/09/25 08:30:00, 0.0,21.9
2023/09/25 08:40:00,12.5,22.4
2023/09/25 08:50:00, 0.0,24.5
2023/09/25 09:00:00, 4.0,24.7
2023/09/25 09:10:00, 0.8,24.3
2023/09/25 09:20:00, 0.6,23.0
2023/09/25 09:30:00, 0.4,23.0
2023/09/25 09:40:00, 0.1,23.3
2023/09/25 09:50:00, 0.1,24.0
2023/09/25 10:00:00, 0.1,23.3
2023/09/25 10:10:00, 0.1,24.0
2023/09/25 10:20:00, 0.1,23.9
2023/09/25 10:30:00, 0.1,24.0
2023/09/25 10:40:00, 0.1,24.0
2023/09/25 10:50:00, 0.2,23.7
2023/09/25 11:00:00, 0.1,24.4
2023/09/25 11:10:00, 0.1,24.0
2023/09/25 11:20:00, 0.2,24.7
2023/09/25 11:30:00, 0.1,25.1
2023/09/25 11:40:00, 0.2,25.6
2023/09/25 11:50:00, 0.1,25.8
2023/09/25 12:00:00, 0.1,25.4
2023/09/25 12:10:00, 0.1,26.3
2023/09/25 12:20:00, 0.0,26.6
2023/09/25 12:30:00, 0.1,26.6
2023/09/25 12:40:00, 0.1,26.3
2023/09/25 12:50:00, 0.0,26.5
2023/09/25 13:00:00, 0.0,26.7
2023/09/25 13:10:00, 0.0,27.4
2023/09/25 13:20:00, 0.0,28.7
2023/09/25 13:30:00, 0.0,28.6
2023/09/25 13:40:00, 0.1,28.9
2023/09/25 13:50:00, 0.3,27.6
2023/09/25 14:00:00, 0.1,27.3
2023/09/25 14:10:00, 0.0,27.1
2023/09/25 14:20:00, 0.0,26.9
2023/09/25 14:30:00, 0.0,27.9
2023/09/25 14:40:00, 0.4,27.7
2023/09/25 14:50:00,11.5,27.8
2023/09/25 15:00:00,13.1,27.6
2023/09/25 15:10:00,13.5,26.4
2023/09/25 15:20:00,13.6,25.8
2023/09/25 15:30:00,13.2,25.5
2023/09/25 15:40:00,13.1,25.1
2023/09/25 15:50:00,12.9,24.4
2023/09/25 16:00:00,12.8,24.3
2023/09/25 16:10:00,12.8,25.2
2023/09/25 16:20:00,13.1,25.1
2023/09/25 16:30:00,13.0,24.6
2023/09/25 16:40:00,13.1,25.0
2023/09/25 16:50:00,13.0,24.3
2023/09/25 17:00:00,12.8,24.2
2023/09/25 17:10:00,12.7,24.0
2023/09/25 17:20:00,12.8,24.0
2023/09/25 17:30:00,12.8,23.3
2023/09/25 17:40:00,13.0,23.0
2023/09/25 17:50:00,13.1,22.7
2023/09/25 18:00:00,13.2,22.6
2023/09/25 18:10:00,13.3,22.3
2023/09/25 18:20:00,13.4,22.1
2023/09/25 18:30:00,13.3,22.1
2023/09/25 18:40:00,12.8,22.0
2023/09/25 18:50:00,11.8,21.7
2023/09/25 19:00:00, 2.2,21.4
2023/09/25 19:10:00, 0.6,21.6
2023/09/25 19:20:00, 0.4,21.5
2023/09/25 19:30:00, 0.3,21.3
2023/09/25 19:40:00, 0.3,21.5
2023/09/25 19:50:00, 0.3,21.5
2023/09/25 20:00:00, 0.4,21.2
2023/09/25 20:10:00, 0.8,21.5
2023/09/25 20:20:00, 6.3,21.1
2023/09/25 20:30:00,10.1,21.2
2023/09/25 20:40:00, 4.1,20.7
2023/09/25 20:50:00, 2.1,20.7
2023/09/25 21:00:00, 4.3,20.8
2023/09/25 21:10:00, 2.8,20.8
2023/09/25 21:20:00, 1.2,20.6
2023/09/25 21:30:00, 0.8,20.6
2023/09/25 21:40:00, 0.6,20.8
2023/09/25 21:50:00, 0.5,20.7
2023/09/25 22:00:00, 0.6,20.8
2023/09/25 22:10:00, 0.7,21.9
2023/09/25 22:20:00, 0.8,21.8
2023/09/25 22:30:00, 0.8,21.7
2023/09/25 22:40:00, 0.7,21.8
2023/09/25 22:50:00, 0.8,20.8
2023/09/25 23:00:00, 0.6,20.6
2023/09/25 23:10:00, 0.4,20.5
2023/09/25 23:20:00, 0.3,20.5
2023/09/25 23:30:00, 0.3,20.7
2023/09/25 23:40:00, 0.5,21.1
2023/09/25 23:50:00, 1.3,21.3
